[[{"header":{"parameterUnit":"m.s-1","parameterCategory":1,"la1":30.2991,"la2":30.254,"lo1":-89.0895,"lo2":-89.0444,"dy":0.0017,"dx":0.0017,"nx":28,"ny":28,"refTime":"2024-06-17T03:00:00:Z","depth":0,"parameterNumber":2,"parameterNumberName":"U-component_of_WINDS"},"data":[0,0,0,0,0,0,0,0,0,0,0,0,0,0,0,0,0,0,0,0,0,0,0,0,0,0,0,0,0,0,0,0,0,0,0,0,0,0,0,0,0,0,0,0,0,0,0,0,0,0,0,0,0,0,0,0,0,0,-3.5224,-3.5225,0,-3.5329,-3.533,-3.5331,-3.5255,-3.5252,-3.5249,-3.5245,-3.5356,-3.5362,-3.5368,0,0,0,0,0,0,0,0,0,0,0,0,0,-3.4961,-3.4966,-3.5224,-3.5225,-3.5227,-3.5329,-3.533,-3.5332,-3.5256,-3.5252,-3.5248,-3.5244,-3.5354,-3.5361,-3.5368,0,0,0,0,0,0,0,0,0,0,0,0,0,-3.5071,-3.4967,-3.5224,-3.5201,-3.52,-3.5329,-3.533,-3.5332,-3.5257,-3.5252,-3.5247,-3.5242,-3.5352,-3.536,-3.5369,-3.5527,0,0,-3.5397,-3.5401,0,0,0,0,0,0,0,0,-3.5065,-3.5081,-3.5203,-3.5203,-3.5202,-3.5274,-3.5278,-3.5398,-3.5258,-3.5235,-3.5245,-3.5239,-3.5333,-3.5343,-3.5374,-3.5532,-3.5537,-3.5398,-3.5404,-3.5408,-3.541,0,0,0,0,0,0,0,-3.5058,-3.5076,-3.5266,-3.5205,-3.5204,-3.5186,-3.5197,-3.53,-3.5311,-3.5237,-3.5232,-3.5245,-3.5332,-3.5366,-3.5376,-3.5538,-3.5398,-3.5406,-3.5412,-3.5415,-3.5829,-3.5834,0,0,0,0,0,0,-3.5052,-3.507,-3.5262,-3.5269,-3.512,-3.5195,-3.5207,-3.5256,-3.531,-3.5313,-3.5249,-3.5241,-3.5352,-3.5366,-3.538,-3.5565,-3.5407,-3.5416,-3.5421,-3.5824,-3.583,-3.5836,0,0,0,0,0,0,-3.5046,-3.5069,-3.5258,-3.5168,-3.5191,-3.5205,-3.5261,-3.5261,-3.5294,-3.5319,-3.5321,-3.5281,-3.5349,-3.5367,-3.549,-3.5568,-3.542,-3.5428,-3.5817,-3.5826,-3.5833,-3.5939,0,0,0,0,0,0,-3.5039,-3.5068,-3.5127,-3.517,-3.5196,-3.5366,-3.5266,-3.5266,-3.531,-3.53,-3.535,-3.5353,-3.5346,-3.5477,-3.5499,-3.5578,-3.5436,-3.581,-3.5821,-3.5831,-3.5929,-3.595,-3.5968,0,0,0,0,0,-3.503,-3.5154,-3.5131,-3.5154,-3.527,-3.5371,-3.5386,-3.5374,-3.5317,-3.5376,-3.5392,-3.5352,-3.5557,-3.549,-3.5515,-3.5597,-3.5805,-3.5818,-3.583,-3.592,-3.5946,-3.5968,0,0,0,0,0,0,-3.5122,-3.5159,-3.5134,-3.5276,-3.532,-3.5358,-3.5433,-3.5403,-3.5465,-3.5454,-3.5438,-3.545,-3.5579,-3.5601,-3.5526,-3.5752,-3.5672,-3.569,-3.5732,-3.5757,-3.5776,-3.5766,-3.5443,0,0,0,0,0,-3.5158,-3.5236,-3.5265,-3.5388,-3.5411,-3.5419,-3.5462,-3.5449,-3.5495,-3.5514,-3.5539,-3.5587,-3.5661,-3.5711,-3.5781,-3.5933,-3.5941,-3.6002,-3.6021,-3.6038,-3.6052,-3.6132,-3.6158,-3.5877,-3.5877,-3.5877,0,0,-3.5235,-3.5265,-3.5315,-3.5407,-3.544,-3.552,-3.5435,-3.5525,-3.5584,-3.5528,-3.5644,-3.5665,-3.5717,-3.5854,-3.5916,-3.5877,-3.6132,-3.6053,-3.6066,-3.6072,-3.6147,-3.6174,-3.6197,-3.5885,-3.5884,-3.5883,0,0,-3.5414,-3.5446,-3.555,-3.5585,-3.5636,-3.564,-3.5665,-3.5707,-3.5718,-3.5835,-3.5794,-3.5866,-3.5996,-3.6033,-3.6069,-3.6264,-3.6228,-3.6288,-3.639,-3.6467,-3.6489,-3.6509,-3.6575,-3.66,-3.6303,-3.6303,-3.6304,0,-3.5503,-3.5622,-3.5608,-3.5699,-3.574,-3.5693,-3.5797,-3.5833,-3.5905,-3.5934,-3.589,-3.605,-3.6082,-3.6226,-3.6273,-3.6306,-3.6333,-3.628,-3.6487,-3.6507,-3.6525,-3.6588,-3.6613,-3.631,-3.6309,-3.6308,-3.6308,0,-3.5727,-3.5811,-3.5889,-3.5957,-3.6007,-3.6106,-3.6106,-3.6159,-3.6143,-3.6152,-3.6271,-3.6308,-3.6383,-3.6418,-3.6404,-3.656,-3.6534,-3.6489,-3.6407,-3.6558,-3.6617,-3.6642,-3.6319,-3.6317,-3.6315,-3.6313,0,0,-3.5965,-3.6024,-3.6053,-3.6082,-3.6135,-3.62,-3.6297,-3.6369,-3.6414,-3.6466,-3.6545,-3.6656,-3.6614,-3.6656,-3.6646,-3.6715,-3.6863,-3.6661,-3.6662,-3.6694,-3.7035,-3.7066,-3.7094,-3.6841,-3.6846,-3.6849,-3.7029,0,-3.6145,-3.631,-3.63,-3.6456,-3.6531,-3.6488,-3.6572,-3.6614,-3.6625,-3.6692,-3.6706,-3.6783,-3.6724,-3.6748,-3.6814,-3.6831,-3.693,-3.6818,-3.6913,-3.6917,-3.6898,-3.7125,-3.7158,-3.7326,-3.7053,-3.7057,-3.706,0,-3.6375,-3.6433,-3.6596,-3.6635,-3.6667,-3.6742,-3.6807,-3.6872,-3.6919,-3.6923,-3.6969,-3.6947,-3.7045,-3.6964,-3.7098,-3.7021,-3.7061,-3.7075,-3.7081,-3.7087,-3.6995,-3.7134,-3.738,-3.7404,-3.7096,-3.7093,-3.7091,0,-3.6528,-3.6647,-3.6759,-3.6787,-3.6837,-3.689,-3.6914,-3.6956,-3.7,-3.7058,-3.7086,-3.7156,-3.7194,-3.7249,-3.7246,-3.7188,-3.7381,-3.7301,-3.7386,-3.7386,-3.7425,-3.7422,-3.7678,-3.7457,-3.7457,-3.7456,-3.7456,0,-3.6728,-3.6828,-3.6828,-3.6896,-3.7008,-3.6996,-3.7107,-3.7125,-3.7163,-3.7235,-3.7204,-3.7272,-3.7266,-3.7336,-3.7335,-3.7444,-3.7463,-3.7468,-3.7466,-3.7469,-3.7467,-3.7491,-3.7478,-3.7463,-3.7461,-3.746,-3.7459,0,-3.6916,-3.692,-3.7038,-3.7076,-3.7088,-3.7168,-3.7201,-3.7266,-3.7275,-3.7366,-3.7387,-3.7402,-3.7481,-3.7486,-3.7579,-3.7578,-3.771,-3.7697,-3.7693,-3.769,-3.7773,-3.7764,-3.805,-3.8086,-3.7845,-3.7848,-3.785,0,-3.7041,-3.7116,-3.7162,-3.7207,-3.7233,-3.7306,-3.735,-3.7343,-3.7391,-3.745,-3.7508,-3.7584,-3.7644,-3.7774,-3.7794,-3.7864,-3.7851,-3.7946,-3.7861,-3.7861,-3.7848,-3.7842,-3.7849,-3.7961,-3.7964,-3.7966,-3.7968,0,-3.7261,-3.7259,-3.7323,-3.7388,-3.7441,-3.7493,-3.7541,-3.758,-3.7578,-3.7634,-3.7713,-3.776,-3.7854,-3.793,-3.7999,-3.8024,-3.7996,-3.7995,-3.8018,-3.802,-3.8013,-3.8014,-3.7735,-3.7988,-3.7986,-3.7984,-3.7983,-3.7983,-3.7419,-3.7483,-3.7524,-3.7597,-3.7632,-3.7677,-3.7739,-3.7756,-3.7822,-3.7896,-3.7889,-3.7977,-3.8022,-3.8111,-3.8142,-3.8212,-3.8179,-3.8213,-3.8221,-3.8229,-3.8236,-3.8005,-3.8225,-3.8225,-3.8224,-3.8224,-3.8223,0,-3.7634,-3.7659,-3.7725,-3.7792,-3.7849,-3.7817,-3.7869,-3.7918,-3.7996,-3.804,-3.81,-3.8191,-3.8265,-3.8291,-3.8362,-3.8413,-3.8402,-3.8432,-3.8426,-3.8432,-3.8263,-3.8234,-3.844,-3.844,-3.8439,-3.8439,-3.8439,-3.8439,-3.7753,-3.7859,-3.7862,-3.7986,-3.801,-3.8095,-3.8126,-3.8168,-3.8202,-3.8305,-3.8366,-3.8382,-3.8418,-3.8492,-3.8558,-3.8564,-3.8591,-3.8626,-3.8626,-3.8466,-3.8444,-3.8423,-3.8396,-3.8632,-3.8633,-3.8789,-3.879,-3.8791]},{"header":{"parameterUnit":"m.s-1","parameterCategory":1,"la1":30.2991,"la2":30.254,"lo1":-89.0895,"lo2":-89.0444,"dy":0.0017,"dx":0.0017,"nx":28,"ny":28,"refTime":"2024-06-17T03:00:00:Z","depth":0,"parameterNumber":3,"parameterNumberName":"V-component_of_WINDS"},"data":[0,0,0,0,0,0,0,0,0,0,0,0,0,0,0,0,0,0,0,0,0,0,0,0,0,0,0,0,0,0,0,0,0,0,0,0,0,0,0,0,0,0,0,0,0,0,0,0,0,0,0,0,0,0,0,0,0,0,0.44,0.44,0,0.4356,0.4355,0.4355,0.4307,0.4306,0.4305,0.4305,0.4256,0.4255,0.4255,0,0,0,0,0,0,0,0,0,0,0,0,0,0.4442,0.4442,0.44,0.44,0.4399,0.4356,0.4355,0.4355,0.4307,0.4306,0.4305,0.4304,0.4256,0.4255,0.4255,0,0,0,0,0,0,0,0,0,0,0,0,0,0.4413,0.4441,0.44,0.437,0.4367,0.4356,0.4355,0.4355,0.4307,0.4306,0.4305,0.4304,0.4256,0.4256,0.4255,0.4269,0,0,0.4252,0.4251,0,0,0,0,0,0,0,0,0.4415,0.4412,0.4375,0.4372,0.4369,0.4336,0.4352,0.4326,0.4307,0.433,0.4305,0.4303,0.4283,0.428,0.4274,0.4267,0.4265,0.4251,0.4251,0.425,0.425,0,0,0,0,0,0,0,0.4417,0.4414,0.4383,0.4375,0.4371,0.4358,0.4353,0.4347,0.4313,0.4328,0.4324,0.432,0.4281,0.4275,0.4272,0.4264,0.4251,0.4251,0.425,0.425,0.4268,0.4269,0,0,0,0,0,0,0.4424,0.4416,0.4384,0.4381,0.439,0.4358,0.4353,0.4347,0.4313,0.4306,0.4321,0.4318,0.4277,0.4273,0.427,0.4285,0.425,0.425,0.4249,0.4266,0.4268,0.4269,0,0,0,0,0,0,0.4425,0.4422,0.4386,0.4398,0.4392,0.4359,0.4353,0.4347,0.4341,0.4307,0.4301,0.432,0.4276,0.4272,0.427,0.4283,0.4249,0.4248,0.4265,0.4267,0.4268,0.4315,0,0,0,0,0,0,0.4427,0.4422,0.4428,0.4398,0.4392,0.4387,0.4354,0.4347,0.4339,0.4335,0.4305,0.4299,0.4275,0.4272,0.4269,0.4281,0.4247,0.4264,0.4266,0.4268,0.4312,0.4318,0.4323,0,0,0,0,0,0.4428,0.4442,0.4428,0.4425,0.4398,0.4388,0.4384,0.4356,0.4341,0.4345,0.4325,0.43,0.4283,0.4272,0.4269,0.428,0.4263,0.4265,0.4268,0.4309,0.4316,0.4322,0,0,0,0,0,0,0.4472,0.4437,0.4422,0.4426,0.4411,0.438,0.4385,0.4365,0.4352,0.4348,0.4314,0.4308,0.431,0.4295,0.4284,0.4293,0.4269,0.4271,0.4302,0.4309,0.4314,0.4317,0.4247,0,0,0,0,0,0.4482,0.4478,0.4447,0.4454,0.4447,0.4418,0.4412,0.4393,0.4375,0.4367,0.4346,0.4329,0.4319,0.4313,0.4303,0.431,0.4303,0.4317,0.4322,0.4327,0.4328,0.4331,0.4337,0.4277,0.4277,0.4277,0,0,0.4503,0.4484,0.4482,0.4463,0.4448,0.4444,0.4412,0.4409,0.4405,0.4366,0.4364,0.4348,0.4326,0.433,0.433,0.4317,0.4344,0.433,0.4334,0.4332,0.4334,0.434,0.4345,0.4278,0.4278,0.4278,0,0,0.4538,0.4524,0.4528,0.4515,0.4494,0.4475,0.4476,0.4449,0.4437,0.4434,0.4406,0.4401,0.4385,0.4371,0.4362,0.4396,0.4373,0.4393,0.442,0.4424,0.4429,0.4433,0.4444,0.4448,0.4395,0.4395,0.4395,0,0.4566,0.4559,0.4532,0.4531,0.4523,0.449,0.4494,0.4482,0.4459,0.4454,0.4441,0.4421,0.4405,0.4404,0.4413,0.4407,0.4407,0.4395,0.4431,0.4434,0.4437,0.4448,0.4452,0.4398,0.4397,0.4397,0.4397,0,0.4594,0.459,0.4596,0.4576,0.4569,0.457,0.4543,0.4539,0.4522,0.4504,0.4502,0.4481,0.4466,0.4465,0.4447,0.4463,0.4455,0.4437,0.4412,0.4446,0.4455,0.4459,0.4401,0.44,0.44,0.4399,0,0,0.4653,0.462,0.4622,0.4613,0.4589,0.4585,0.4586,0.4572,0.457,0.4556,0.4554,0.4543,0.4527,0.4517,0.4497,0.45,0.4528,0.4481,0.448,0.449,0.4544,0.4557,0.4562,0.4514,0.4515,0.4515,0.4545,0,0.4683,0.4682,0.4659,0.4664,0.466,0.463,0.4631,0.4616,0.46,0.4594,0.4576,0.4569,0.4548,0.4541,0.4544,0.4524,0.4538,0.4522,0.4511,0.4511,0.4516,0.4566,0.4579,0.4609,0.4549,0.4549,0.455,0,0.4717,0.4706,0.4711,0.4689,0.4686,0.4687,0.4674,0.4669,0.4652,0.464,0.463,0.4609,0.4607,0.4586,0.4584,0.4573,0.4568,0.4558,0.4559,0.4555,0.4531,0.4563,0.4617,0.4621,0.4555,0.4555,0.4554,0,0.4758,0.4745,0.4747,0.474,0.4714,0.4715,0.4704,0.4687,0.4681,0.4669,0.4665,0.4653,0.4646,0.4638,0.4614,0.4601,0.4614,0.4591,0.4603,0.4604,0.4605,0.4605,0.4658,0.4605,0.4605,0.4605,0.4605,0,0.4792,0.4796,0.4765,0.4766,0.477,0.4744,0.4748,0.4735,0.472,0.4717,0.4691,0.4689,0.4659,0.4653,0.4635,0.4635,0.4633,0.4623,0.4617,0.4624,0.4625,0.4618,0.4615,0.4606,0.4606,0.4606,0.4606,0,0.4837,0.4817,0.4816,0.4793,0.4787,0.4791,0.477,0.477,0.4754,0.4751,0.4749,0.4723,0.4716,0.4692,0.4678,0.4666,0.4672,0.4663,0.4677,0.4674,0.4687,0.4686,0.4736,0.4741,0.4687,0.4688,0.4688,0,0.486,0.4863,0.484,0.4837,0.4828,0.4823,0.4818,0.4793,0.4788,0.4771,0.4773,0.4764,0.4755,0.4744,0.4724,0.4714,0.4703,0.4722,0.4701,0.4708,0.4702,0.4701,0.4701,0.4725,0.4726,0.4727,0.4727,0,0.4902,0.4892,0.4885,0.4876,0.487,0.4861,0.485,0.4849,0.4822,0.4818,0.4811,0.4805,0.4792,0.4783,0.477,0.4758,0.4738,0.4735,0.4737,0.4742,0.475,0.4745,0.4688,0.4733,0.4732,0.4732,0.4731,0.4731,0.4935,0.4936,0.4921,0.4915,0.4905,0.4896,0.4895,0.488,0.4874,0.4862,0.4849,0.4843,0.4828,0.4808,0.4798,0.4794,0.4783,0.4786,0.4786,0.4787,0.479,0.4753,0.4791,0.4791,0.4791,0.4791,0.4791,0,0.4974,0.4964,0.4959,0.4946,0.4941,0.4925,0.4913,0.491,0.4906,0.4894,0.4887,0.4879,0.4871,0.4852,0.4842,0.4842,0.4832,0.484,0.4838,0.4836,0.4801,0.4799,0.4847,0.4847,0.4847,0.4847,0.4847,0.4847,0.4994,0.4996,0.4985,0.4981,0.4971,0.4966,0.4961,0.4952,0.4943,0.4936,0.493,0.4918,0.4902,0.4892,0.4884,0.4878,0.4875,0.4885,0.4876,0.4844,0.4838,0.4833,0.4831,0.4885,0.4885,0.4911,0.4912,0.4912]}]]